�������l�o���
Date,Time,MP-1(��Sv/h),MP-2(��Sv/h),MP-3(��Sv/h),MP-4(��Sv/h),MP-5(��Sv/h),MP-6(��Sv/h),MP-7(��Sv/h),����,����(m/s),���J
2021/05/31,00:00,0.166,0.151,0.240,0.231,0.234,0.131,0.080,���k��,2.7,��
2021/05/31,00:10,0.167,0.150,0.240,0.232,0.234,0.130,0.081,���k��,2.7,��
2021/05/31,00:20,0.167,0.151,0.240,0.232,0.234,0.130,0.081,���k��,2.9,��
2021/05/31,00:30,0.166,0.151,0.240,0.233,0.233,0.130,0.081,���k��,2.7,��
2021/05/31,00:40,0.166,0.151,0.241,0.232,0.235,0.130,0.080,���k��,2.2,��
2021/05/31,00:50,0.166,0.153,0.239,0.232,0.233,0.130,0.081,���k��,3.1,��
2021/05/31,01:00,0.166,0.152,0.240,0.233,0.233,0.131,0.081,���k��,2.5,��
2021/05/31,01:10,0.167,0.152,0.241,0.232,0.234,0.130,0.081,���k��,2.8,��
2021/05/31,01:20,0.166,0.151,0.239,0.232,0.231,0.131,0.080,���k��,2.5,��
2021/05/31,01:30,0.167,0.151,0.240,0.233,0.234,0.130,0.081,�k��,2.4,��
2021/05/31,01:40,0.167,0.151,0.240,0.233,0.233,0.130,0.081,�k��,2.3,��
2021/05/31,01:50,0.165,0.151,0.240,0.232,0.232,0.131,0.079,�k��,2.8,��
2021/05/31,02:00,0.166,0.151,0.239,0.234,0.234,0.130,0.082,�k��,4.1,��
2021/05/31,02:10,0.166,0.152,0.240,0.233,0.233,0.130,0.081,�k�k��,5.3,��
2021/05/31,02:20,0.166,0.152,0.241,0.231,0.234,0.130,0.080,�k�k��,4.8,��
2021/05/31,02:30,0.166,0.151,0.240,0.234,0.234,0.131,0.080,�k��,4.1,��
2021/05/31,02:40,0.166,0.151,0.241,0.232,0.233,0.130,0.081,�k��,5.1,��
2021/05/31,02:50,0.167,0.151,0.240,0.232,0.234,0.130,0.080,�k��,5.5,��
2021/05/31,03:00,0.165,0.150,0.240,0.233,0.233,0.130,0.080,�k��,5.3,��
2021/05/31,03:10,0.166,0.151,0.240,0.232,0.234,0.130,0.081,�k��,4.9,��
2021/05/31,03:20,0.168,0.152,0.239,0.232,0.233,0.131,0.080,�k��,5.1,��
2021/05/31,03:30,0.165,0.150,0.240,0.233,0.233,0.132,0.081,�k��,3.8,��
2021/05/31,03:40,0.167,0.151,0.240,0.232,0.234,0.130,0.081,���k��,2.3,��
2021/05/31,03:50,0.166,0.151,0.240,0.232,0.233,0.130,0.081,�k��,2.8,��
2021/05/31,04:00,0.165,0.151,0.240,0.233,0.233,0.131,0.081,�k��,2.8,��
2021/05/31,04:10,0.167,0.152,0.241,0.231,0.233,0.131,0.081,���k��,2.0,��
2021/05/31,04:20,0.166,0.151,0.239,0.233,0.232,0.130,0.081,���k��,2.5,��
2021/05/31,04:30,0.166,0.151,0.240,0.233,0.234,0.129,0.080,���k��,3.4,��
2021/05/31,04:40,0.167,0.152,0.240,0.232,0.233,0.130,0.081,��,4.6,��
2021/05/31,04:50,0.166,0.153,0.240,0.232,0.233,0.130,0.081,��,2.8,��
2021/05/31,05:00,0.167,0.152,0.239,0.233,0.234,0.129,0.080,��,1.6,��
2021/05/31,05:10,0.166,0.150,0.239,0.231,0.231,0.131,0.081,�k�k��,0.8,��
2021/05/31,05:20,0.166,0.151,0.239,0.232,0.234,0.130,0.080,��,0.6,��
2021/05/31,05:30,0.167,0.152,0.238,0.232,0.233,0.130,0.081,���쓌,2.0,��
2021/05/31,05:40,0.165,0.150,0.240,0.231,0.234,0.130,0.081,��,0.8,��
2021/05/31,05:50,0.167,0.150,0.239,0.231,0.232,0.130,0.080,��,1.0,��
2021/05/31,06:00,0.166,0.151,0.240,0.232,0.233,0.130,0.080,-,CALM,��
2021/05/31,06:10,0.166,0.149,0.240,0.231,0.231,0.129,0.080,-,CALM,��
2021/05/31,06:20,0.167,0.151,0.238,0.232,0.232,0.130,0.080,��,0.7,��
2021/05/31,06:30,0.166,0.150,0.239,0.230,0.232,0.130,0.081,���쓌,1.0,��
2021/05/31,06:40,0.167,0.151,0.240,0.232,0.232,0.130,0.080,��,2.3,��
2021/05/31,06:50,0.166,0.151,0.239,0.230,0.233,0.130,0.080,��,1.7,��
2021/05/31,07:00,0.166,0.149,0.241,0.232,0.232,0.130,0.082,�쓌,1.2,��
2021/05/31,07:10,0.165,0.152,0.238,0.232,0.235,0.129,0.081,��,1.2,��
2021/05/31,07:20,0.167,0.151,0.237,0.229,0.232,0.130,0.081,�쓌,1.3,��
2021/05/31,07:30,0.166,0.150,0.239,0.231,0.234,0.130,0.081,��쓌,1.5,��
2021/05/31,07:40,0.167,0.150,0.238,0.230,0.231,0.130,0.081,��,1.7,��
2021/05/31,07:50,0.165,0.151,0.237,0.230,0.234,0.129,0.080,�쓌,2.2,��
2021/05/31,08:00,0.167,0.151,0.236,0.232,0.232,0.129,0.080,��,2.9,��
2021/05/31,08:10,0.167,0.151,0.238,0.230,0.231,0.130,0.081,��,2.7,��
2021/05/31,08:20,0.166,0.151,0.240,0.228,0.234,0.129,0.082,���쓌,3.2,��
2021/05/31,08:30,0.166,0.152,0.239,0.231,0.232,0.131,0.080,���쓌,3.1,��
2021/05/31,08:40,0.165,0.150,0.238,0.233,0.231,0.130,0.081,���쓌,3.0,��
2021/05/31,08:50,0.166,0.152,0.237,0.231,0.234,0.129,0.080,���쓌,2.5,��
2021/05/31,09:00,0.167,0.151,0.237,0.230,0.234,0.130,0.081,���쓌,2.8,��
2021/05/31,09:10,0.166,0.151,0.240,0.229,0.231,0.130,0.081,��,4.2,��
2021/05/31,09:20,0.165,0.150,0.240,0.231,0.232,0.129,0.081,��,3.5,��
2021/05/31,09:30,0.165,0.151,0.239,0.232,0.235,0.130,0.081,��,2.4,��
2021/05/31,09:40,0.166,0.151,0.238,0.232,0.234,0.130,0.081,��,3.3,��
2021/05/31,09:50,0.165,0.150,0.238,0.230,0.231,0.130,0.080,���쓌,2.7,��
2021/05/31,10:00,0.164,0.150,0.238,0.232,0.231,0.130,0.080,�쓌,2.5,��
2021/05/31,10:10,0.168,0.152,0.241,0.232,0.234,0.130,0.081,���쓌,3.9,��
2021/05/31,10:20,0.166,0.152,0.241,0.235,0.233,0.130,0.081,��,3.1,��
2021/05/31,10:30,0.165,0.150,0.241,0.232,0.233,0.130,0.081,���쓌,2.8,��
2021/05/31,10:40,0.165,0.151,0.238,0.232,0.231,0.130,0.080,���쓌,2.4,��
2021/05/31,10:50,0.163,0.151,0.238,0.231,0.234,0.130,0.080,���쓌,3.2,��
2021/05/31,11:00,0.167,0.150,0.242,0.232,0.234,0.130,0.080,���쓌,3.1,��
2021/05/31,11:10,0.168,0.150,0.241,0.234,0.231,0.129,0.081,���쓌,3.5,��
2021/05/31,11:20,0.165,0.151,0.240,0.233,0.231,0.129,0.080,��,2.1,��
2021/05/31,11:30,0.164,0.152,0.238,0.231,0.234,0.129,0.080,���쓌,2.6,��
2021/05/31,11:40,0.164,0.152,0.240,0.230,0.234,0.131,0.080,���쓌,2.8,��
2021/05/31,11:50,0.166,0.150,0.242,0.234,0.233,0.131,0.080,���쓌,2.8,��
2021/05/31,12:00,0.167,0.151,0.241,0.234,0.232,0.130,0.081,���쓌,3.6,��
2021/05/31,12:10,0.166,0.153,0.240,0.232,0.233,0.130,0.081,���쓌,3.4,��
2021/05/31,12:20,0.165,0.151,0.239,0.232,0.235,0.131,0.080,�쓌,3.7,��
2021/05/31,12:30,0.165,0.151,0.239,0.234,0.232,0.131,0.081,���쓌,3.4,��
2021/05/31,12:40,0.165,0.152,0.242,0.236,0.233,0.130,0.081,���쓌,3.0,��
2021/05/31,12:50,0.167,0.152,0.242,0.234,0.232,0.130,0.081,���쓌,2.6,��
2021/05/31,13:00,0.167,0.151,0.239,0.232,0.235,0.130,0.081,�쓌,3.6,��
2021/05/31,13:10,0.166,0.151,0.239,0.232,0.234,0.131,0.081,�쓌,3.1,��
2021/05/31,13:20,0.164,0.151,0.244,0.232,0.233,0.130,0.081,�쓌,3.4,��
2021/05/31,13:30,0.165,0.153,0.242,0.236,0.231,0.130,0.081,���쓌,3.9,��
2021/05/31,13:40,0.164,0.152,0.240,0.233,0.232,0.131,0.080,�쓌,3.2,��
2021/05/31,13:50,0.166,0.151,0.239,0.231,0.235,0.132,0.080,�쓌,3.4,��
2021/05/31,14:00,0.168,0.151,0.240,0.232,0.234,0.130,0.080,�쓌,2.7,��
2021/05/31,14:10,0.167,0.152,0.243,0.234,0.233,0.130,0.081,�쓌,3.6,��
2021/05/31,14:20,0.165,0.152,0.241,0.234,0.230,0.129,0.081,�쓌,3.8,��
2021/05/31,14:30,0.165,0.151,0.240,0.234,0.232,0.131,0.080,�쓌,4.1,��
2021/05/31,14:40,0.165,0.150,0.241,0.234,0.235,0.131,0.081,��쓌,4.0,��
2021/05/31,14:50,0.164,0.153,0.244,0.233,0.234,0.131,0.081,�쓌,3.8,��
2021/05/31,15:00,0.164,0.152,0.242,0.236,0.232,0.129,0.081,�쓌,4.2,��
2021/05/31,15:10,0.167,0.151,0.239,0.234,0.232,0.131,0.081,�쓌,3.9,��
2021/05/31,15:20,0.167,0.151,0.240,0.233,0.231,0.131,0.081,�쓌,4.7,��
2021/05/31,15:30,0.166,0.152,0.243,0.231,0.231,0.130,0.081,�쓌,4.4,��
2021/05/31,15:40,0.165,0.154,0.241,0.235,0.234,0.131,0.081,�쓌,4.1,��
2021/05/31,15:50,0.166,0.152,0.240,0.236,0.235,0.130,0.081,�쓌,4.9,��
2021/05/31,16:00,0.164,0.152,0.244,0.234,0.233,0.131,0.081,�쓌,5.2,��
2021/05/31,16:10,0.168,0.152,0.242,0.235,0.233,0.130,0.081,�쓌,4.4,��
2021/05/31,16:20,0.167,0.152,0.243,0.235,0.231,0.131,0.081,�쓌,4.8,��
2021/05/31,16:30,0.167,0.153,0.243,0.234,0.236,0.131,0.081,�쓌,4.5,��
2021/05/31,16:40,0.165,0.152,0.243,0.236,0.235,0.130,0.080,�쓌,4.9,��
2021/05/31,16:50,0.167,0.152,0.243,0.235,0.232,0.130,0.082,�쓌,5.2,��
2021/05/31,17:00,0.169,0.153,0.243,0.235,0.231,0.130,0.081,�쓌,4.7,��
2021/05/31,17:10,0.166,0.152,0.245,0.234,0.235,0.131,0.081,�쓌,4.8,��
2021/05/31,17:20,0.168,0.151,0.242,0.236,0.235,0.131,0.081,�쓌,4.3,��
2021/05/31,17:30,0.167,0.154,0.244,0.234,0.233,0.131,0.081,��쓌,3.2,��
2021/05/31,17:40,0.168,0.152,0.242,0.235,0.235,0.130,0.081,�쓌,2.9,��
2021/05/31,17:50,0.167,0.153,0.242,0.235,0.234,0.132,0.081,��쓌,3.8,��
2021/05/31,18:00,0.167,0.153,0.242,0.236,0.237,0.130,0.081,��,3.6,��
2021/05/31,18:10,0.168,0.152,0.243,0.236,0.234,0.130,0.081,��,3.5,��
2021/05/31,18:20,0.167,0.152,0.242,0.236,0.236,0.130,0.080,��쓌,4.4,��
2021/05/31,18:30,0.168,0.152,0.243,0.235,0.235,0.130,0.081,��,3.8,��
2021/05/31,18:40,0.166,0.152,0.241,0.235,0.235,0.131,0.080,��,1.8,��
2021/05/31,18:50,0.167,0.152,0.243,0.236,0.236,0.130,0.081,��,3.3,��
2021/05/31,19:00,0.167,0.152,0.242,0.235,0.233,0.131,0.081,��,4.1,��
2021/05/31,19:10,0.167,0.153,0.243,0.236,0.235,0.131,0.081,��,4.3,��
2021/05/31,19:20,0.167,0.152,0.241,0.236,0.233,0.131,0.081,��쐼,5.2,��
2021/05/31,19:30,0.168,0.152,0.244,0.235,0.235,0.130,0.081,��,4.2,��
2021/05/31,19:40,0.168,0.152,0.242,0.235,0.233,0.131,0.081,��,4.2,�L
2021/05/31,19:50,0.168,0.153,0.243,0.237,0.235,0.133,0.082,��,3.5,�L
2021/05/31,20:00,0.170,0.153,0.243,0.237,0.236,0.134,0.084,��,5.4,�L
2021/05/31,20:10,0.171,0.157,0.247,0.239,0.240,0.137,0.086,��,6.3,�L
2021/05/31,20:20,0.173,0.158,0.250,0.243,0.241,0.139,0.089,��쓌,6.5,�L
2021/05/31,20:30,0.176,0.162,0.251,0.245,0.244,0.142,0.092,��,6.3,�L
2021/05/31,20:40,0.177,0.163,0.255,0.248,0.245,0.145,0.095,��,6.3,�L
2021/05/31,20:50,0.179,0.165,0.255,0.249,0.249,0.147,0.097,��,6.8,�L
2021/05/31,21:00,0.180,0.164,0.255,0.249,0.246,0.146,0.097,��,7.3,��
2021/05/31,21:10,0.178,0.163,0.253,0.245,0.246,0.144,0.095,��,6.1,��
2021/05/31,21:20,0.177,0.161,0.251,0.244,0.242,0.142,0.093,��쐼,6.0,��
2021/05/31,21:30,0.175,0.159,0.250,0.241,0.242,0.141,0.092,��쐼,6.2,��
2021/05/31,21:40,0.174,0.159,0.246,0.240,0.240,0.139,0.089,��쐼,6.0,��
2021/05/31,21:50,0.172,0.156,0.246,0.239,0.239,0.137,0.088,��쐼,5.6,��
2021/05/31,22:00,0.171,0.156,0.244,0.237,0.237,0.136,0.086,��쐼,6.1,��
2021/05/31,22:10,0.169,0.154,0.243,0.236,0.237,0.135,0.084,��쐼,5.6,��
2021/05/31,22:20,0.169,0.154,0.242,0.236,0.234,0.134,0.085,��쐼,6.0,��
2021/05/31,22:30,0.169,0.153,0.242,0.235,0.235,0.133,0.083,��쐼,5.7,��
2021/05/31,22:40,0.169,0.154,0.242,0.233,0.234,0.133,0.083,��쐼,6.3,��
2021/05/31,22:50,0.168,0.153,0.241,0.235,0.235,0.131,0.082,�쐼,6.2,��
2021/05/31,23:00,0.168,0.152,0.241,0.233,0.233,0.132,0.083,��쐼,5.5,��
2021/05/31,23:10,0.167,0.153,0.240,0.234,0.234,0.131,0.082,�쐼,5.2,��
2021/05/31,23:20,0.167,0.152,0.241,0.233,0.232,0.132,0.081,�쐼,4.0,��
2021/05/31,23:30,0.167,0.153,0.239,0.234,0.234,0.130,0.081,�쐼,3.3,��
2021/05/31,23:40,0.167,0.150,0.241,0.233,0.232,0.131,0.082,��쐼,3.1,��
2021/05/31,23:50,0.166,0.151,0.240,0.234,0.233,0.131,0.080,��쐼,3.1,��
